Location: Wellington
(41.3000°S, 174.8000°E)
Time: 03:46:30
(UTC+12:00)

ISS - Visible Passes

Search period start: 24 August 2017 00:00
Search period end: 03 September 2017 00:00
Orbit: 401 x 408 km, 51.6° (Epoch: 24 August)

Date Brightness Start Highest point End Pass type
(mag) Time Alt. Az. Time Alt. Az. Time Alt. Az.
25 Aug -1.0 19:50:35 10° NNW 19:50:48 11° NNW 19:50:48 11° NNW visible
26 Aug -2.1 18:59:06 10° N 19:01:23 18° NE 19:01:23 18° NE visible
27 Aug -3.1 19:42:02 10° NW 19:44:33 49° NW 19:44:33 49° NW visible
28 Aug -3.3 18:49:55 10° NNW 18:53:04 43° NE 18:54:53 22° ESE visible
28 Aug -0.7 20:26:43 10° W 20:27:34 15° WSW 20:27:34 15° WSW visible
29 Aug -2.9 19:34:00 10° WNW 19:37:11 43° SSW 19:37:45 39° S visible
30 Aug -3.7 18:41:28 10° WNW 18:44:47 77° SSW 18:47:50 12° SE visible
30 Aug -0.9 20:19:13 10° WSW 20:20:30 16° SW 20:20:30 16° SW visible
31 Aug -1.9 19:26:17 10° W 19:29:06 25° SSW 19:30:29 19° SSE visible
01 Sep -2.5 18:33:28 10° W 18:36:35 37° SSW 18:39:42 10° SE visible
01 Sep -1.0 20:11:44 10° SW 20:13:02 14° SSW 20:13:02 14° SSW visible
02 Sep -1.4 19:18:44 10° WSW 19:21:05 18° SSW 19:22:51 13° SSE visible
